This is the latest recevied weather packets stored in our database for station/object DG4MJS-10. If no packets are shown the sender has not sent any weather packets the latest 10 day(s).
| Time | Temp. | Humidity | Pressure | Rain* | Wind** | Luminosity | Snow |
|---|---|---|---|---|---|---|---|
| 1787642960 | 18.33° C | 61% | 1012.6 hPa | - | - | - | - |
| 1787642060 | 18.33° C | 62% | 1012.5 hPa | - | - | - | - |
| 1787641160 | 18.33° C | 63% | 1012.2 hPa | - | - | - | - |
| 1787640260 | 18.33° C | 55% | 1012 hPa | - | - | - | - |
| 1787639360 | 18.33° C | 58% | 1011.8 hPa | - | - | - | - |
| 1787638459 | 18.33° C | 57% | 1011.8 hPa | - | - | - | - |
| 1787637559 | 18.33° C | 59% | 1011.6 hPa | - | - | - | - |
| 1787636659 | 18.33° C | 61% | 1011.4 hPa | - | - | - | - |
| 1787635759 | 18.33° C | 56% | 1011 hPa | - | - | - | - |
| 1787634859 | 17.78° C | 58% | 1010.9 hPa | - | - | - | - |
| 1787633959 | 17.78° C | 58% | 1010.8 hPa | - | - | - | - |
| 1787633059 | 17.78° C | 59% | 1010.8 hPa | - | - | - | - |
| 1787632159 | 17.78° C | 59% | 1010.4 hPa | - | - | - | - |
| 1787631260 | 17.78° C | 59% | 1010.5 hPa | - | - | - | - |
| 1787630360 | 17.78° C | 59% | 1010.3 hPa | - | - | - | - |
| 1787629460 | 18.33° C | 56% | 1010.1 hPa | - | - | - | - |
| 1787628560 | 18.33° C | 55% | 1010.2 hPa | - | - | - | - |
| 1787627660 | 18.33° C | 55% | 1010.3 hPa | - | - | - | - |
| 1787626760 | 18.33° C | 56% | 1010.4 hPa | - | - | - | - |
| 1787625860 | 18.33° C | 56% | 1010.6 hPa | - | - | - | - |
| 1787624960 | 18.33° C | 54% | 1010.7 hPa | - | - | - | - |
| 1787624060 | 18.33° C | 55% | 1010.5 hPa | - | - | - | - |
| 1787623160 | 18.33° C | 53% | 1010.8 hPa | - | - | - | - |
| 1787622260 | 18.33° C | 54% | 1010.7 hPa | - | - | - | - |
| 1787621359 | 18.33° C | 56% | 1011 hPa | - | - | - | - |
* Rain since midnight (hover to see other rain measurements)
** Current wind speed in m/s (hover to see current wind gust speed)